Location: Newark
(42.8481°N, 0.4872°E)
Time: 08:35:14
(UTC+00:00)

Transit 2A Rocket - Pass Details

Date: 01 November 2020
Orbit: 588 x 914 km, 66.7° (Epoch: 29 November)

Event Time Altitude Azimuth Distance (km) Brightness Sun altitude
Rises 09:37:21 0° 237° (WSW) 3,539 8.4 25.8°
Reaches altitude 10° 09:40:07 10° 246° (WSW) 2,595 7.7 26.1°
Maximum altitude 09:45:38 35° 311° (NW) 1,409 6.2 26.7°
Drops below altitude 10° 09:50:57 10° 16° (NNE) 2,501 7.4 27.2°
Sets 09:53:35 0° 26° (NNE) 3,396 8.0 27.4°
